When you browse on this site, cookies collect data to enhance your experience and personalize the content and advertising you see.
Visit our Privacy Policy to learn more. By continuing to use the site, you agree to this use of cookies and data.
  • In Hungary
  • List of Countries
  • For 7 days
  • Water Temperature
  • Satellite Maps
  • Weather Map
  • News
  • Weather Widgets
  • user-avatar
    Login

    Hourly Weather Sanie

    Today, 22 May, Wednesday

    Time Temperature Precipitation Wind Pressure Humidity
    00:00 +14°C° 0.5 mm 3 mps 745 mmHg 95%
    01:00 +13°C° 0 mm 3 mps 744 mmHg 96%
    02:00 +14°C° 0.7 mm 3 mps 745 mmHg 97%
    03:00 +14°C° 0.7 mm 4 mps 745 mmHg 97%
    04:00 +14°C° 0.7 mm 4 mps 745 mmHg 98%
    05:00 +14°C° 0.4 mm 4 mps 745 mmHg 97%
    06:00 +14°C° 0.4 mm 5 mps 745 mmHg 96%
    07:00 +15°C° 0 mm 4 mps 746 mmHg 95%
    08:00 +15°C° 0.5 mm 5 mps 746 mmHg 94%
    09:00 +15°C° 0.5 mm 6 mps 746 mmHg 93%
    10:00 +15°C° 0.5 mm 6 mps 747 mmHg 93%
    11:00 +15°C° 0.4 mm 6 mps 747 mmHg 92%
    12:00 +15°C° 0.4 mm 7 mps 747 mmHg 92%
    13:00 +15°C° 0.4 mm 7 mps 747 mmHg 92%
    14:00 +15°C° 0.1 mm 7 mps 748 mmHg 92%
    15:00 +15°C° 0.1 mm 7 mps 748 mmHg 91%
    16:00 +15°C° 0.1 mm 7 mps 748 mmHg 90%
    17:00 +14°C° 0.1 mm 7 mps 748 mmHg 91%
    18:00 +14°C° 0.1 mm 7 mps 749 mmHg 91%
    19:00 +14°C° 0.1 mm 7 mps 749 mmHg 92%
    20:00 +12°C° 0.1 mm 7 mps 749 mmHg 92%
    21:00 +12°C° 0.1 mm 7 mps 750 mmHg 92%
    22:00 +13°C° 0.1 mm 6 mps 750 mmHg 93%
    23:00 +11°C° 0.1 mm 6 mps 750 mmHg 93%

    Tomorrow, 23 May, Thursday

    Time Temperature Precipitation Wind Pressure Humidity
    00:00 +11°C° 0.1 mm 6 mps 751 mmHg 93%
    01:00 +11°C° 0.1 mm 6 mps 751 mmHg 93%
    02:00 +10°C° 0.2 mm 6 mps 751 mmHg 93%
    03:00 +10°C° 0.2 mm 6 mps 751 mmHg 94%
    04:00 +10°C° 0.2 mm 6 mps 752 mmHg 94%
    05:00 +10°C° 0.2 mm 6 mps 752 mmHg 94%
    06:00 +9°C° 0.2 mm 6 mps 752 mmHg 93%
    07:00 +9°C° 0.2 mm 6 mps 753 mmHg 93%
    08:00 +9°C° 0.1 mm 6 mps 753 mmHg 92%
    09:00 +10°C° 0.1 mm 6 mps 753 mmHg 90%
    10:00 +10°C° 0.1 mm 6 mps 754 mmHg 89%
    11:00 +11°C° 0 mm 6 mps 754 mmHg 82%
    12:00 +13°C° 0 mm 5 mps 754 mmHg 76%
    13:00 +14°C° 0 mm 5 mps 754 mmHg 70%
    14:00 +15°C° 0 mm 5 mps 754 mmHg 67%
    15:00 +16°C° 0 mm 5 mps 753 mmHg 65%
    16:00 +17°C° 0 mm 5 mps 753 mmHg 62%
    17:00 +17°C° 0 mm 4 mps 753 mmHg 66%
    18:00 +16°C° 0 mm 3 mps 753 mmHg 70%
    19:00 +16°C° 0 mm 2 mps 753 mmHg 74%
    20:00 +14°C° 0 mm 2 mps 754 mmHg 75%
    21:00 +13°C° 0 mm 2 mps 754 mmHg 76%
    22:00 +10°C° 0 mm 3 mps 754 mmHg 77%
    23:00 +10°C° 0 mm 2 mps 754 mmHg 77%

    Day after tomorrow, 24 May, Friday

    Time Temperature Precipitation Wind Pressure Humidity
    00:00 +9°C° 0 mm 2 mps 754 mmHg 76%
    01:00 +8°C° 0 mm 2 mps 754 mmHg 75%
    02:00 +7°C° 0 mm 2 mps 754 mmHg 77%
    03:00 +7°C° 0 mm 2 mps 754 mmHg 78%
    04:00 +7°C° 0 mm 2 mps 754 mmHg 80%
    05:00 +8°C° 0 mm 2 mps 754 mmHg 76%
    06:00 +10°C° 0 mm 2 mps 754 mmHg 72%
    07:00 +13°C° 0 mm 2 mps 754 mmHg 69%
    08:00 +15°C° 0 mm 2 mps 754 mmHg 65%
    09:00 +16°C° 0 mm 2 mps 753 mmHg 62%
    10:00 +18°C° 0 mm 2 mps 753 mmHg 58%
    11:00 +19°C° 0 mm 2 mps 753 mmHg 57%
    12:00 +20°C° 0 mm 2 mps 753 mmHg 55%
    13:00 +21°C° 0 mm 2 mps 752 mmHg 54%
    14:00 +21°C° 0 mm 2 mps 752 mmHg 54%
    15:00 +21°C° 0 mm 2 mps 751 mmHg 54%
    16:00 +21°C° 0 mm 2 mps 751 mmHg 55%
    17:00 +21°C° 0 mm 1 mps 751 mmHg 60%
    18:00 +20°C° 0 mm 1 mps 751 mmHg 65%
    19:00 +16°C° 0 mm 0 mps 751 mmHg 71%
    20:00 +16°C° 0 mm 1 mps 751 mmHg 73%
    21:00 +15°C° 0 mm 1 mps 751 mmHg 75%
    22:00 +14°C° 0 mm 1 mps 751 mmHg 77%
    23:00 +14°C° 0 mm 2 mps 751 mmHg 78%

    25 May, Saturday

    Time Temperature Precipitation Wind Pressure Humidity
    00:00 +13°C° 0 mm 2 mps 751 mmHg 79%
    01:00 +13°C° 0 mm 2 mps 751 mmHg 81%
    02:00 +13°C° 0 mm 2 mps 751 mmHg 81%
    03:00 +13°C° 0 mm 2 mps 751 mmHg 82%
    04:00 +13°C° 0 mm 2 mps 751 mmHg 82%
    05:00 +13°C° 0 mm 3 mps 751 mmHg 81%
    06:00 +14°C° 0 mm 3 mps 751 mmHg 81%
    07:00 +16°C° 0 mm 3 mps 751 mmHg 80%
    08:00 +17°C° 0.1 mm 3 mps 751 mmHg 75%
    09:00 +19°C° 0.1 mm 4 mps 751 mmHg 70%
    10:00 +20°C° 0.1 mm 4 mps 751 mmHg 65%
    11:00 +20°C° 0.4 mm 4 mps 751 mmHg 67%
    12:00 +20°C° 0.4 mm 4 mps 751 mmHg 68%
    13:00 +20°C° 0.4 mm 4 mps 751 mmHg 69%
    14:00 +21°C° 0.1 mm 4 mps 751 mmHg 63%
    15:00 +21°C° 0.1 mm 4 mps 750 mmHg 58%
    16:00 +22°C° 0.1 mm 4 mps 750 mmHg 53%
    17:00 +20°C° 0 mm 4 mps 750 mmHg 59%
    18:00 +19°C° 0 mm 3 mps 750 mmHg 65%
    19:00 +17°C° 0 mm 2 mps 750 mmHg 72%
    20:00 +15°C° 0 mm 2 mps 751 mmHg 78%
    21:00 +14°C° 0 mm 2 mps 751 mmHg 84%
    22:00 +12°C° 0 mm 1 mps 751 mmHg 91%
    23:00 +10°C° 0 mm 2 mps 751 mmHg 91%

    26 May, Sunday

    Time Temperature Precipitation Wind Pressure Humidity
    00:00 +10°C° 0 mm 2 mps 751 mmHg 92%
    01:00 +10°C° 0 mm 2 mps 751 mmHg 92%
    02:00 +10°C° 0 mm 2 mps 751 mmHg 91%
    03:00 +10°C° 0 mm 2 mps 751 mmHg 90%
    04:00 +10°C° 0 mm 3 mps 751 mmHg 89%
    05:00 +10°C° 0 mm 4 mps 751 mmHg 85%
    06:00 +11°C° 0 mm 4 mps 751 mmHg 81%
    07:00 +12°C° 0 mm 5 mps 751 mmHg 77%
    08:00 +13°C° 0 mm 5 mps 751 mmHg 72%
    09:00 +14°C° 0 mm 6 mps 751 mmHg 67%
    10:00 +15°C° 0 mm 6 mps 750 mmHg 61%
    11:00 +15°C° 0 mm 6 mps 750 mmHg 62%
    12:00 +14°C° 0 mm 6 mps 750 mmHg 62%
    13:00 +14°C° 0 mm 6 mps 750 mmHg 62%
    14:00 +15°C° 0 mm 7 mps 750 mmHg 60%
    15:00 +16°C° 0 mm 7 mps 750 mmHg 58%
    16:00 +16°C° 0 mm 7 mps 750 mmHg 56%
    17:00 +15°C° 0 mm 6 mps 750 mmHg 61%
    18:00 +14°C° 0 mm 5 mps 750 mmHg 66%
    19:00 +12°C° 0 mm 5 mps 750 mmHg 72%
    20:00 +11°C° 0 mm 4 mps 750 mmHg 76%
    21:00 +10°C° 0 mm 4 mps 751 mmHg 80%
    22:00 +9°C° 0 mm 3 mps 751 mmHg 84%
    23:00 +9°C° 0 mm 3 mps 751 mmHg 88%

    27 May, Monday

    Time Temperature Precipitation Wind Pressure Humidity
    00:00 +8°C° 0 mm 3 mps 751 mmHg 91%
    01:00 +8°C° 0 mm 3 mps 751 mmHg 95%
    02:00 +7°C° 0 mm 3 mps 751 mmHg 96%
    03:00 +7°C° 0 mm 2 mps 751 mmHg 96%
    04:00 +6°C° 0 mm 2 mps 751 mmHg 97%
    05:00 +8°C° 0 mm 2 mps 751 mmHg 91%
    06:00 +10°C° 0 mm 2 mps 751 mmHg 85%
    07:00 +12°C° 0 mm 2 mps 750 mmHg 79%
    08:00 +14°C° 0 mm 2 mps 750 mmHg 76%
    09:00 +16°C° 0 mm 2 mps 750 mmHg 72%
    10:00 +17°C° 0 mm 3 mps 750 mmHg 68%
    11:00 +19°C° 0 mm 3 mps 749 mmHg 65%
    12:00 +20°C° 0 mm 3 mps 749 mmHg 62%
    13:00 +21°C° 0 mm 3 mps 748 mmHg 59%
    14:00 +22°C° 0 mm 3 mps 748 mmHg 58%
    15:00 +22°C° 0 mm 3 mps 747 mmHg 57%
    16:00 +24°C° 0 mm 3 mps 747 mmHg 57%
    17:00 +21°C° 0.6 mm 3 mps 746 mmHg 65%
    18:00 +20°C° 0.6 mm 2 mps 746 mmHg 74%
    19:00 +19°C° 0.6 mm 2 mps 746 mmHg 83%
    20:00 +17°C° 0.1 mm 2 mps 746 mmHg 85%
    21:00 +16°C° 0.1 mm 1 mps 746 mmHg 87%
    22:00 +15°C° 0.1 mm 1 mps 746 mmHg 89%
    23:00 +15°C° 0.1 mm 1 mps 746 mmHg 90%
    Show more